Regional Weather Roundup
Issued by NWS

Home | Current Version | Previous Version | Graphics & Text | Print | Product List | Glossary On
Versions: 1 2 3 4 5 6 7 8 9 10 11 12 13 14 15 16 17 18 19 20 21 22 23 24 25 26 27 28 29 30 31 32 33 34 35 36 37 38 39 40 41 42 43 44 45 46 47 48 49 50
000
ASUS45 KCYS 010210
RWRWY

WYOMING REGIONAL WEATHER ROUNDUP
NATIONAL WEATHER SERVICE CHEYENNE WY
800 PM MDT FRI JUL 31 2015

NOTE:  "FAIR" INDICATES FEW OR NO CLOUDS BELOW 12,000 FEET
WITH NO SIGNIFICANT WEATHER AND/OR OBSTRUCTIONS TO VISIBILITY.

WYZ001-010300-
YELLOWSTONE NATIONAL PARK

CITY           SKY/WX    TMP DP  RH WIND       PRES   REMARKS
LK YELLOWSTONE   N/A     70  28  21 VRB3      30.44R
W YELLOWSTONE  NOT AVBL

$$
WYZ002>013-054>058-071-098>099-010300-
NORTHERN WYOMING

CITY           SKY/WX    TMP DP  RH WIND       PRES   REMARKS
JACKSON        CLEAR     77  34  20 W7        30.29S
CODY           FAIR      81  39  22 NE6       30.18S
GREYBULL       FAIR      92  29  10 CALM      30.06S
WORLAND        FAIR      88  35  15 N6        30.08S
SHERIDAN       FAIR      82  52  35 W3        30.10R
BUFFALO        FAIR      83  41  22 NW9       30.18S
GILLETTE       FAIR      83  46  27 E13       30.12S
HULETT         FAIR      77  48  36 SE7       30.15S
NEWCASTLE      FAIR      81  46  30 SE12      30.13S

$$
WYZ014>020-022>026-101>103-010300-
CENTRAL WYOMING

CITY           SKY/WX    TMP DP  RH WIND       PRES   REMARKS
BIG PINEY      FAIR      79  23  12 N10       30.32S
PINEDALE       FAIR      77  27  15 NW10      30.33S
DUBOIS         FAIR      77  19  11 NW12      30.32S
LANDER         FAIR      83  35  18 W5        30.15S
RIVERTON       FAIR      83  28  13 N6        30.16F
CASPER         FAIR      85  26  11 NE7       30.16S
DOUGLAS        FAIR      84  42  22 S12       30.16S

$$
WYZ021-027>030-104>119-010300-
SOUTHERN WYOMING

CITY           SKY/WX    TMP DP  RH WIND       PRES   REMARKS
EVANSTON       FAIR      79  23  12 N14       30.33S
KEMMERER       FAIR      77  25  14 NW14      30.35S
FORT BRIDGER   CLEAR     81  21  11 NW13G20   30.34S
ROCK SPRINGS   FAIR      78  24  13 NW7       30.27S
DIXON          FAIR      83  25  11 N6        30.26S
RAWLINS        FAIR      82  20  10 N6        30.27F
SARATOGA       FAIR      77  25  14 N3        30.29S
LARAMIE        FAIR      69  46  43 E13       30.34S
CHEYENNE       FAIR      75  48  38 SE9       30.28S
TORRINGTON     FAIR      81  52  36 E8        30.13S
PINE BLUFFS    FAIR      75  45  33 E6        30.22S

$$



USA.gov is the U.S. government's official web portal to all federal, state and local government web resources and services.